Вернуться в каталог

COSMOS 2529

GLONASS

АктивенНавигацияMEO
NORAD 43687·PAYLOAD·🇷🇺 Russia

Запущен Nov 3, 2018 с Plesetsk Cosmodrome

Loading…

Ближайшие Пролёты (ближайшие 24 часа)

TLE

СвежийSource: CelesTrak SupGP

Эпоха: Sep 14, 2026, 23:59 UTC

1 43687C 18086A   26257.99979167  .00000000  00000+0  00000+0 0  2575
2 43687  64.2959 189.5644 0010124 254.5276 251.2474  2.13102053    14

Отслеживайте COSMOS 2529 в реальном времени с AllMySat

Download on the App Store